Location: Kitchener
(43.4500°N, 80.5000°W)
Time: 09:50:31
(UTC-04:00)

ATLAS 5 CENTAUR R/B - Visible Passes

Search period start: 24 August 2016 00:00
Search period end: 03 September 2016 00:00
Orbit: 664 x 997 km, 63.4° (Epoch: 18 July)

Date Brightness Start Highest point End Pass type
(mag) Time Alt. Az. Time Alt. Az. Time Alt. Az.
24 Aug 4.4 03:46:18 10° SE 03:47:48 11° ESE 03:49:20 10° E visible
24 Aug 1.9 05:27:26 15° SW 05:31:31 89° ESE 05:36:47 10° NE visible
25 Aug 4.4 03:28:09 10° ESE 03:28:58 10° ESE 03:29:49 10° E visible
25 Aug 1.9 05:09:30 22° SSW 05:12:38 84° ESE 05:17:54 10° NE visible
26 Aug 1.9 04:51:30 33° SSW 04:53:45 79° SE 04:59:00 10° NE visible
27 Aug 1.9 04:33:28 46° SSW 04:34:52 74° ESE 04:40:06 10° NE visible
28 Aug 1.9 04:15:22 62° SSE 04:15:59 69° ESE 04:21:12 10° NE visible
28 Aug 3.5 05:57:13 10° W 06:01:15 23° NW 06:05:32 10° NNE visible
29 Aug 2.0 03:57:14 65° ESE 03:57:14 65° ESE 04:02:18 10° NE visible
29 Aug 3.4 05:38:48 13° W 05:42:18 24° NW 05:46:41 10° NNE visible
30 Aug 2.5 03:39:04 53° E 03:39:04 53° E 03:43:23 10° NE visible
30 Aug 3.4 05:20:37 17° W 05:23:22 25° NW 05:27:49 10° NNE visible
31 Aug 3.0 03:20:51 40° ENE 03:20:51 40° ENE 03:24:28 10° NE visible
31 Aug 3.3 05:02:25 21° WNW 05:04:26 27° NW 05:08:57 10° NNE visible
01 Sep 3.5 03:02:37 31° ENE 03:02:37 31° ENE 03:05:34 10° NE visible
01 Sep 3.2 04:44:10 25° WNW 04:45:30 28° NW 04:50:06 10° NNE visible
02 Sep 3.9 02:44:21 25° ENE 02:44:21 25° ENE 02:46:38 10° NE visible
02 Sep 3.1 04:25:54 28° NW 04:26:35 29° NW 04:31:14 10° NNE visible
02 Sep 4.4 06:11:55 10° NNW 06:13:13 11° NNW 06:14:33 10° N visible
